Lid_Strength_Index
11 11 12 12 12 12 12 12 12 11 12 11 11 11 11 11 10 10 11 11 10 10 9 9 9 9 9 9 9 9 9 9 10 8 7 6 6 5 4 4 3 2 2
11 12 12 12 12 12 12 12 12 12 11 11 11 11 11 11 11 12 12 11 11 11 10 10 10 9 9 9 9 9 8 8 9 10 8 7 7 6 5 5 4 4 3
12 12 13 12 12 12 12 12 12 12 12 12 12 12 12 11 12 12 12 12 11 11 10 10 10 11 11 10 10 10 9 8 8 8 9 8 7 6 6 6 6 5 4
12 12 13 13 12 12 12 12 12 12 12 12 12 12 12 12 13 13 12 12 11 10 11 11 11 11 11 11 11 11 10 10 10 9 9 9 8 7 6 7 7 5 6
13 13 13 12 12 12 12 12 12 12 12 12 12 12 12 13 13 13 12 11 11 12 12 12 12 12 11 11 11 10 10 10 10 10 10 9 9 9 9 8 8 7 7
14 13 13 13 13 13 13 13 13 13 12 12 13 13 13 13 13 12 11 11 12 13 13 13 12 13 12 11 10 9 9 10 11 11 11 11 10 9 8 8 7 7 8
15 14 14 14 14 15 14 14 14 13 13 13 12 12 14 15 13 12 12 12 12 13 14 14 14 13 12 11 10 9 10 10 10 10 11 10 10 8 8 8 8 8 7
17 16 16 16 15 16 15 15 15 14 14 13 12 12 15 15 13 12 12 12 12 13 14 15 15 13 12 11 10 12 12 12 11 11 11 11 10 9 8 8 8 8 8
18 18 17 17 16 16 15 15 15 14 12 12 12 12 14 16 14 13 12 12 12 13 13 14 14 13 11 10 11 13 13 13 11 11 11 10 9 9 8 8 9 9 8
17 17 17 18 17 16 15 15 14 12 12 12 12 12 13 17 15 13 12 13 14 14 14 14 13 13 11 11 12 13 14 14 14 14 13 13 12 12 11 10 10 9 8
13 14 16 17 16 16 16 15 13 13 13 13 13 13 18 18 17 14 12 13 14 14 15 15 14 13 12 11 12 13 14 13 15 15 14 14 13 13 13 13 11 8 9
11 13 15 16 16 15 15 14 14 15 14 13 14 16 16 17 17 14 12 12 13 15 16 16 15 13 13 13 13 13 14 16 16 15 15 15 15 14 13 13 13 13 12
10 13 14 16 16 15 15 15 15 14 13 14 16 17 17 16 16 14 13 12 14 16 16 15 14 14 15 16 15 15 18 18 18 16 17 16 16 15 14 13 13 13 14
10 12 14 16 16 16 14 14 14 13 14 15 17 17 17 17 16 16 15 16 16 17 18 19 17 16 16 17 18 18 19 19 19 18 17 17 16 16 15 15 14 14 16
9 11 14 15 16 16 15 15 14 13 14 15 16 16 17 17 16 14 14 16 17 16 22 20 20 20 20 20 19 20 20 19 19 19 19 18 17 16 17 16 16 16 17
9 11 13 14 15 15 15 16 12 12 12 11 12 14 15 13 12 12 13 13 14 16 22 22 22 22 22 22 22 21 21 22 22 19 19 18 18 17 17 17 17 18 18
10 10 12 13 15 15 15 16 16 14 10 10 10 10 11 13 12 12 13 14 15 18 22 24 23 23 23 23 23 23 23 23 24 22 21 20 18 17 17 18 18 19 20
10 10 12 12 14 14 15 15 15 15 14 13 11 10 10 11 11 11 13 17 21 22 24 24 24 25 24 25 24 24 24 23 23 22 22 22 21 20 20 20 20 20 20
9 9 11 12 13 13 14 15 15 15 15 18 19 12 11 11 11 11 12 21 23 24 26 25 26 26 26 26 26 26 25 25 25 24 24 23 23 21 22 22 22 22 21
9 10 11 12 13 15 15 15 16 16 16 16 15 14 18 12 13 18 21 22 24 24 25 24 27 27 27 27 27 27 25 25 25 25 25 25 24 23 23 23 22 22 23
9 11 11 12 13 14 15 15 15 15 16 16 15 16 15 14 16 18 20 23 22 23 25 25 27 28 29 29 27 26 26 27 27 27 26 26 25 25 24 24 24 24 23
11 11 12 12 13 14 14 14 15 15 16 16 17 17 12 16 18 18 19 20 22 23 23 25 26 27 28 27 27 26 26 26 27 27 26 27 25 25 25 25 25 25 24
12 12 13 14 14 14 14 14 14 15 16 16 17 18 15 14 17 18 19 21 23 25 26 26 26 29 30 30 28 26 25 26 26 27 26 26 26 26 25 26 26 27 26
14 13 14 14 15 15 15 15 15 15 15 17 17 17 16 14 18 18 19 21 24 26 26 26 26 26 29 30 30 30 29 29 29 28 26 26 27 27 27 28 27 28 27
16 17 16 16 15 16 16 15 16 16 16 17 17 17 17 16 17 19 20 22 24 25 26 27 26 26 27 29 30 30 29 29 30 30 28 27 28 28 29 29 29 29 29
16 16 17 18 17 16 15 15 16 16 16 16 17 17 17 16 17 18 21 22 23 24 25 26 26 26 26 27 28 27 28 27 29 28 27 27 28 30 29 30 30 29 30